| time (UTC) | temp F | wind direction | speed MPH | gust MPH | rain 1hr in | rain 24hr in | rain mn in | humidity % | barometer mb |
| 20260509230723 | 59 | 68 | 1.0 | 2.0 | 0.00 | 0.00 | 0.00 | 71 | 1014.0 |
| 20260509225723 | 60 | 68 | 1.0 | 3.0 | 0.00 | 0.00 | 0.00 | 71 | 1014.1 |
| 20260509224723 | 60 | 68 | 2.0 | 4.0 | 0.00 | 0.00 | 0.00 | 71 | 1014.1 |
| 20260509223723 | 60 | 68 | 1.0 | 2.0 | 0.00 | 0.00 | 0.00 | 71 | 1014.1 |
| 20260509222723 | 61 | 68 | 1.0 | 2.0 | 0.00 | 0.00 | 0.00 | 71 | 1014.1 |
| 20260509221723 | 61 | 68 | 1.0 | 4.0 | 0.00 | 0.00 | 0.00 | 70 | 1014.1 |
| 20260509220723 | 61 | 68 | 1.0 | 4.0 | 0.00 | 0.00 | 0.00 | 69 | 1014.1 |
| 20260509215723 | 61 | 68 | 2.0 | 6.0 | 0.00 | 0.00 | 0.00 | 69 | 1014.2 |
| 20260509214723 | 62 | 68 | 3.0 | 6.0 | 0.00 | 0.00 | 0.00 | 69 | 1014.2 |
| 20260509213723 | 62 | 45 | 4.0 | 8.0 | 0.00 | 0.00 | 0.00 | 68 | 1014.2 |
| 20260509212723 | 62 | 45 | 5.0 | 10.0 | 0.00 | 0.00 | 0.00 | 67 | 1014.2 |
| 20260509211723 | 63 | 45 | 4.0 | 8.0 | 0.00 | 0.00 | 0.00 | 67 | 1014.2 |
| 20260509210723 | 63 | 45 | 6.0 | 10.0 | 0.00 | 0.00 | 0.00 | 67 | 1014.2 |
| 20260509205723 | 63 | 68 | 5.0 | 10.0 | 0.00 | 0.00 | 0.00 | 67 | 1014.3 |
| 20260509204723 | 63 | 68 | 4.0 | 10.0 | 0.00 | 0.00 | 0.00 | 68 | 1014.4 |
| 20260509203723 | 63 | 68 | 4.0 | 8.0 | 0.00 | 0.00 | 0.00 | 68 | 1014.3 |
| 20260509202723 | 63 | 68 | 4.0 | 10.0 | 0.00 | 0.00 | 0.00 | 67 | 1014.4 |
| 20260509201723 | 64 | 68 | 5.0 | 10.0 | 0.00 | 0.00 | 0.00 | 66 | 1014.4 |
| 20260509200723 | 64 | 68 | 4.0 | 9.0 | 0.00 | 0.00 | 0.00 | 66 | 1014.4 |
| 20260509195723 | 64 | 68 | 4.0 | 8.0 | 0.00 | 0.00 | 0.00 | 66 | 1014.4 |
| 20260509194725 | 65 | 68 | 4.0 | 7.0 | 0.00 | 0.00 | 0.00 | 65 | 1014.4 |
| 20260509193725 | 65 | 45 | 5.0 | 10.0 | 0.00 | 0.00 | 0.00 | 64 | 1014.4 |
| 20260509192725 | 66 | 45 | 6.0 | 10.0 | 0.00 | 0.00 | 0.00 | 63 | 1014.3 |
| 20260509191725 | 66 | 68 | 4.0 | 11.0 | 0.00 | 0.00 | 0.00 | 62 | 1014.3 |
| 20260509190725 | 67 | 68 | 3.0 | 7.0 | 0.00 | 0.00 | 0.00 | 61 | 1014.3 |
| 20260509185725 | 67 | 45 | 3.0 | 6.0 | 0.00 | 0.00 | 0.00 | 61 | 1014.4 |
| 20260509184725 | 68 | 45 | 3.0 | 6.0 | 0.00 | 0.00 | 0.00 | 59 | 1014.3 |
| 20260509183724 | 69 | 45 | 2.0 | 4.0 | 0.00 | 0.00 | 0.00 | 58 | 1014.2 |
| 20260509182724 | 70 | 45 | 3.0 | 5.0 | 0.00 | 0.00 | 0.00 | 57 | 1014.0 |
| 20260509181724 | 70 | 45 | 3.0 | 6.0 | 0.00 | 0.00 | 0.00 | 56 | 1013.9 |
| 20260509180724 | 71 | 45 | 3.0 | 6.0 | 0.00 | 0.00 | 0.00 | 55 | 1014.0 |
| 20260509175724 | 71 | 45 | 4.0 | 9.0 | 0.00 | 0.00 | 0.00 | 54 | 1014.1 |
| 20260509174724 | 71 | 45 | 4.0 | 9.0 | 0.00 | 0.00 | 0.00 | 53 | 1014.1 |
| 20260509173724 | 71 | 45 | 7.0 | 13.0 | 0.00 | 0.00 | 0.00 | 53 | 1013.7 |
| 20260509172724 | 72 | 45 | 7.0 | 14.0 | 0.00 | 0.00 | 0.00 | 51 | 1013.7 |
| 20260509171724 | 72 | 68 | 5.0 | 11.0 | 0.00 | 0.00 | 0.00 | 49 | 1013.7 |
| 20260509170724 | 73 | 45 | 5.0 | 10.0 | 0.00 | 0.00 | 0.00 | 47 | 1013.7 |
| 20260509165724 | 73 | 338 | 5.0 | 10.0 | 0.00 | 0.00 | 0.00 | 48 | 1013.8 |
| 20260509164724 | 73 | 360 | 5.0 | 8.0 | 0.00 | 0.00 | 0.00 | 47 | 1014.0 |
| 20260509163724 | 74 | 338 | 5.0 | 10.0 | 0.00 | 0.00 | 0.00 | 46 | 1013.8 |
| 20260509162724 | 74 | 360 | 5.0 | 9.0 | 0.00 | 0.00 | 0.00 | 46 | 1014.1 |
| 20260509161724 | 74 | 338 | 4.0 | 9.0 | 0.00 | 0.00 | 0.00 | 46 | 1014.3 |
| 20260509160724 | 74 | 360 | 5.0 | 9.0 | 0.00 | 0.00 | 0.00 | 44 | 1014.3 |
| 20260509155724 | 75 | 338 | 4.0 | 8.0 | 0.00 | 0.00 | 0.00 | 45 | 1014.4 |
| 20260509154724 | 75 | 338 | 3.0 | 5.0 | 0.00 | 0.00 | 0.00 | 44 | 1014.6 |
| 20260509153724 | 75 | 338 | 3.0 | 6.0 | 0.00 | 0.00 | 0.00 | 43 | 1014.8 |
| 20260509152724 | 75 | 315 | 4.0 | 8.0 | 0.00 | 0.00 | 0.00 | 44 | 1014.8 |
| 20260509151724 | 75 | 360 | 5.0 | 11.0 | 0.00 | 0.00 | 0.00 | 45 | 1014.8 |
| 20260509150724 | 76 | 22 | 2.0 | 8.0 | 0.00 | 0.00 | 0.00 | 44 | 1014.9 |
| 20260509145724 | 76 | 45 | 2.0 | 6.0 | 0.00 | 0.00 | 0.00 | 42 | 1015.0 |
| 20260509144724 | 76 | 315 | 3.0 | 8.0 | 0.00 | 0.00 | 0.00 | 43 | 1015.0 |
| 20260509143724 | 76 | 360 | 2.0 | 5.0 | 0.00 | 0.00 | 0.00 | 43 | 1015.2 |
| 20260509142724 | 76 | 90 | 2.0 | 5.0 | 0.00 | 0.00 | 0.00 | 43 | 1015.2 |
| 20260509141724 | 76 | 135 | 1.0 | 5.0 | 0.00 | 0.00 | 0.00 | 44 | 1015.3 |
| 20260509140724 | 75 | 360 | 1.0 | 4.0 | 0.00 | 0.00 | 0.00 | 45 | 1015.3 |
| 20260509135724 | 74 | 22 | 3.0 | 8.0 | 0.00 | 0.00 | 0.00 | 47 | 1015.4 |
| 20260509134724 | 75 | 360 | 3.0 | 8.0 | 0.00 | 0.00 | 0.00 | 46 | 1015.6 |
| 20260509133724 | 75 | 315 | 3.0 | 6.0 | 0.00 | 0.00 | 0.00 | 46 | 1015.7 |
| 20260509132724 | 74 | 315 | 3.0 | 7.0 | 0.00 | 0.00 | 0.00 | 46 | 1015.8 |
| 20260509131723 | 74 | 338 | 3.0 | 8.0 | 0.00 | 0.00 | 0.00 | 48 | 1015.9 |
| 20260509130724 | 73 | 338 | 3.0 | 6.0 | 0.00 | 0.00 | 0.00 | 48 | 1016.0 |
| 20260509125723 | 73 | 360 | 2.0 | 5.0 | 0.00 | 0.00 | 0.00 | 49 | 1016.2 |
| 20260509124723 | 74 | 68 | 4.0 | 8.0 | 0.00 | 0.00 | 0.00 | 49 | 1016.2 |
| 20260509123723 | 74 | 68 | 2.0 | 6.0 | 0.00 | 0.00 | 0.00 | 50 | 1016.3 |
| 20260509122723 | 73 | 45 | 3.0 | 7.0 | 0.00 | 0.00 | 0.00 | 50 | 1016.4 |
| 20260509121723 | 73 | 270 | 2.0 | 6.0 | 0.00 | 0.00 | 0.00 | 51 | 1016.6 |
| 20260509120723 | 72 | 270 | 3.0 | 6.0 | 0.00 | 0.00 | 0.00 | 51 | 1016.8 |
| 20260509115723 | 71 | 45 | 3.0 | 7.0 | 0.00 | 0.00 | 0.00 | 52 | 1016.8 |
| 20260509114723 | 71 | 45 | 4.0 | 9.0 | 0.00 | 0.00 | 0.00 | 54 | 1016.8 |
| 20260509113723 | 71 | 360 | 3.0 | 7.0 | 0.00 | 0.00 | 0.00 | 53 | 1017.0 |
| 20260509112723 | 72 | 292 | 3.0 | 7.0 | 0.00 | 0.00 | 0.00 | 53 | 1017.2 |
| 20260509111723 | 71 | 180 | 2.0 | 6.0 | 0.00 | 0.00 | 0.00 | 53 | 1017.2 |
| 20260509110723 | 71 | 68 | 3.0 | 8.0 | 0.00 | 0.00 | 0.00 | 54 | 1017.3 |
| 20260509105723 | 70 | 360 | 2.0 | 10.0 | 0.00 | 0.00 | 0.00 | 56 | 1017.4 |
| 20260509104723 | 70 | 180 | 2.0 | 5.0 | 0.00 | 0.00 | 0.00 | 55 | 1017.6 |
| 20260509103723 | 69 | 202 | 3.0 | 6.0 | 0.00 | 0.00 | 0.00 | 58 | 1017.6 |
| 20260509102723 | 68 | 202 | 3.0 | 7.0 | 0.00 | 0.00 | 0.00 | 58 | 1017.5 |
| 20260509101723 | 68 | 180 | 4.0 | 11.0 | 0.00 | 0.00 | 0.00 | 58 | 1017.7 |
| 20260509100723 | 69 | 180 | 3.0 | 9.0 | 0.00 | 0.00 | 0.00 | 56 | 1017.7 |
| 20260509095723 | 69 | 180 | 5.0 | 13.0 | 0.00 | 0.00 | 0.00 | 56 | 1017.7 |
| 20260509094723 | 70 | 158 | 3.0 | 9.0 | 0.00 | 0.00 | 0.00 | 55 | 1017.8 |
| 20260509093723 | 69 | 180 | 5.0 | 10.0 | 0.00 | 0.00 | 0.00 | 56 | 1017.8 |
| 20260509092723 | 69 | 158 | 4.0 | 8.0 | 0.00 | 0.00 | 0.00 | 56 | 1017.8 |
| 20260509091723 | 68 | 135 | 3.0 | 9.0 | 0.00 | 0.00 | 0.00 | 55 | 1017.9 |
| 20260509090723 | 67 | 112 | 2.0 | 8.0 | 0.00 | 0.00 | 0.00 | 59 | 1018.1 |
| 20260509085723 | 66 | 112 | 4.0 | 9.0 | 0.00 | 0.00 | 0.00 | 58 | 1018.0 |
| 20260509084723 | 66 | 135 | 3.0 | 8.0 | 0.00 | 0.00 | 0.00 | 61 | 1018.1 |
| 20260509083723 | 64 | 112 | 4.0 | 8.0 | 0.00 | 0.00 | 0.00 | 63 | 1018.2 |
| 20260509082723 | 64 | 68 | 1.0 | 3.0 | 0.00 | 0.00 | 0.00 | 67 | 1018.3 |
| 20260509081723 | 62 | 68 | 1.0 | 3.0 | 0.00 | 0.00 | 0.00 | 69 | 1018.3 |
| 20260509080725 | 60 | 68 | 2.0 | 4.0 | 0.00 | 0.00 | 0.00 | 71 | 1018.6 |
| 20260509075725 | 60 | 22 | 2.0 | 4.0 | 0.00 | 0.00 | 0.00 | 72 | 1018.6 |
| 20260509074725 | 60 | 315 | 3.0 | 8.0 | 0.00 | 0.00 | 0.00 | 73 | 1018.6 |
| 20260509073725 | 59 | 90 | 1.0 | 2.0 | 0.00 | 0.00 | 0.00 | 74 | 1018.6 |
| 20260509072725 | 58 | 90 | 2.0 | 6.0 | 0.00 | 0.00 | 0.00 | 75 | 1018.6 |
| 20260509071725 | 57 | 45 | 3.0 | 6.0 | 0.00 | 0.00 | 0.00 | 77 | 1018.6 |
| 20260509070725 | 56 | 68 | 3.0 | 6.0 | 0.00 | 0.00 | 0.00 | 78 | 1018.6 |
| 20260509065725 | 55 | 45 | 3.0 | 5.0 | 0.00 | 0.00 | 0.00 | 80 | 1018.7 |
| 20260509064725 | 54 | 45 | 3.0 | 7.0 | 0.00 | 0.00 | 0.00 | 81 | 1018.7 |
| 20260509063724 | 53 | 45 | 4.0 | 8.0 | 0.00 | 0.00 | 0.00 | 82 | 1018.6 |
| 20260509062724 | 52 | 68 | 3.0 | 6.0 | 0.00 | 0.00 | 0.00 | 83 | 1018.5 |
| 20260509061724 | 52 | 68 | 1.0 | 3.0 | 0.00 | 0.00 | 0.00 | 85 | 1018.6 |
| 20260509060724 | 51 | 68 | 2.0 | 3.0 | 0.00 | 0.00 | 0.00 | 85 | 1018.8 |
| 20260509055724 | 51 | 135 | 1.0 | 4.0 | 0.00 | 0.00 | 0.00 | 85 | 1018.8 |
| 20260509054724 | 51 | 180 | 1.0 | 2.0 | 0.00 | 0.00 | 0.00 | 85 | 1018.8 |
| 20260509053724 | 50 | 180 | 0.0 | 2.0 | 0.00 | 0.00 | 0.00 | 86 | 1018.8 |
| 20260509052724 | 50 | 158 | 0.0 | 1.0 | 0.00 | 0.00 | 0.00 | 87 | 1018.7 |
| 20260509051723 | 49 | 158 | 0.0 | 2.0 | 0.00 | 0.00 | 0.00 | 87 | 1018.6 |
| 20260509050723 | 48 | 158 | 1.0 | 3.0 | 0.00 | 0.00 | 0.00 | 87 | 1018.6 |
| 20260509045723 | 48 | 158 | 0.0 | 1.0 | 0.00 | 0.00 | 0.00 | 87 | 1018.5 |
| 20260509044723 | 48 | 158 | 0.0 | 1.0 | 0.00 | 0.00 | 0.00 | 87 | 1018.5 |
| 20260509043723 | 47 | 158 | 0.0 | 1.0 | 0.00 | 0.00 | 0.00 | 86 | 1018.5 |
| 20260509042723 | 48 | 158 | 1.0 | 2.0 | 0.00 | 0.00 | 0.00 | 86 | 1018.4 |
| 20260509041723 | 48 | 158 | 0.0 | 1.0 | 0.00 | 0.00 | 0.00 | 85 | 1018.4 |
| 20260509040723 | 48 | 158 | 0.0 | 1.0 | 0.00 | 0.00 | 0.00 | 85 | 1018.4 |
| 20260509035723 | 48 | 158 | 0.0 | 1.0 | 0.00 | 0.00 | 0.00 | 85 | 1018.3 |
| 20260509034723 | 48 | 158 | 1.0 | 2.0 | 0.00 | 0.00 | 0.00 | 85 | 1018.4 |
| 20260509033723 | 48 | 0 | 0.0 | 0.0 | 0.00 | 0.00 | 0.00 | 85 | 1018.4 |
| 20260509032723 | 49 | 158 | 0.0 | 2.0 | 0.00 | 0.00 | 0.00 | 84 | 1018.3 |
| 20260509031723 | 49 | 158 | 0.0 | 2.0 | 0.00 | 0.00 | 0.00 | 84 | 1018.3 |
| 20260509030723 | 49 | 158 | 1.0 | 3.0 | 0.00 | 0.00 | 0.00 | 84 | 1018.4 |
| 20260509025723 | 49 | 112 | 2.0 | 6.0 | 0.00 | 0.00 | 0.00 | 84 | 1018.4 |
| 20260509024723 | 49 | 90 | 2.0 | 4.0 | 0.00 | 0.00 | 0.00 | 84 | 1018.4 |
| 20260509023723 | 49 | 68 | 3.0 | 6.0 | 0.00 | 0.00 | 0.00 | 84 | 1018.3 |
| 20260509022723 | 49 | 68 | 3.0 | 5.0 | 0.00 | 0.00 | 0.00 | 84 | 1018.5 |
| 20260509021723 | 49 | 68 | 3.0 | 4.0 | 0.00 | 0.00 | 0.00 | 84 | 1018.6 |
| 20260509021437 | 50 | 68 | 3.0 | 4.0 | 0.00 | 0.00 | 0.00 | 83 | 1018.6 |
| 20260509020437 | 50 | 68 | 1.0 | 3.0 | 0.00 | 0.00 | 0.00 | 82 | 1018.5 |
| 20260509015437 | 50 | 68 | 1.0 | 2.0 | 0.00 | 0.00 | 0.00 | 82 | 1018.5 |
| 20260509014437 | 51 | 68 | 1.0 | 3.0 | 0.00 | 0.00 | 0.00 | 81 | 1018.4 |
| 20260509013437 | 51 | 68 | 0.0 | 1.0 | 0.00 | 0.00 | 0.00 | 81 | 1018.4 |
| 20260509012437 | 51 | 68 | 1.0 | 3.0 | 0.00 | 0.00 | 0.00 | 81 | 1018.4 |
| 20260509011437 | 51 | 112 | 2.0 | 4.0 | 0.00 | 0.00 | 0.00 | 81 | 1018.3 |
| 20260509010437 | 51 | 158 | 0.0 | 2.0 | 0.00 | 0.00 | 0.00 | 82 | 1018.3 |
| 20260509005437 | 50 | 158 | 0.0 | 2.0 | 0.00 | 0.00 | 0.00 | 82 | 1018.3 |
| 20260509004437 | 50 | 158 | 1.0 | 2.0 | 0.00 | 0.00 | 0.00 | 81 | 1018.3 |
| 20260509003437 | 51 | 158 | 2.0 | 3.0 | 0.00 | 0.00 | 0.00 | 80 | 1018.4 |
| 20260509002437 | 52 | 158 | 1.0 | 3.0 | 0.00 | 0.00 | 0.00 | 78 | 1018.5 |
| 20260509001437 | 52 | 158 | 0.0 | 2.0 | 0.00 | 0.00 | 0.00 | 77 | 1018.4 |
| 20260509000437 | 52 | 0 | 0.0 | 0.0 | 0.00 | 0.00 | 0.00 | 77 | 1018.4 |
| 20260508235437 | 53 | 158 | 0.0 | 2.0 | 0.00 | 0.00 | 0.00 | 77 | 1018.4 |
| 20260508234437 | 53 | 158 | 1.0 | 3.0 | 0.00 | 0.00 | 0.00 | 76 | 1018.4 |
| 20260508233436 | 53 | 135 | 1.0 | 3.0 | 0.00 | 0.00 | 0.00 | 75 | 1018.5 |
| 20260508232436 | 54 | 90 | 1.0 | 3.0 | 0.00 | 0.00 | 0.00 | 74 | 1018.4 |
| 20260508231436 | 54 | 90 | 0.0 | 3.0 | 0.00 | 0.00 | 0.00 | 74 | 1018.4 |